TimeEDT,TemperatureF,Dew PointF,Humidity,Sea Level PressureIn,VisibilityMPH,Wind Direction,Wind SpeedMPH,Gust SpeedMPH,PrecipitationIn,Events,Conditions,WindDirDegrees,DateUTC
12:54 AM,62.1,55.9,80,30.06,10.0,North,4.6,-,N/A,,Overcast,360,2013-10-08 04:54:00
1:54 AM,61.0,50.0,67,30.09,10.0,North,5.8,-,N/A,,Overcast,350,2013-10-08 05:54:00
2:54 AM,59.0,46.0,62,30.09,10.0,North,5.8,-,N/A,,Scattered Clouds,350,2013-10-08 06:54:00
3:54 AM,57.0,45.0,64,30.11,10.0,North,4.6,-,N/A,,Clear,350,2013-10-08 07:54:00
4:54 AM,55.9,45.0,67,30.13,10.0,NNW,3.5,-,N/A,,Clear,340,2013-10-08 08:54:00
5:54 AM,55.0,45.0,69,30.15,10.0,Calm,Calm,-,N/A,,Clear,0,2013-10-08 09:54:00
6:54 AM,54.0,46.0,75,30.17,10.0,NNW,3.5,-,N/A,,Clear,340,2013-10-08 10:54:00
7:54 AM,54.0,46.0,75,30.20,10.0,North,3.5,-,N/A,,Clear,360,2013-10-08 11:54:00
9:54 AM,61.0,45.0,56,30.23,10.0,NNE,12.7,23.0,N/A,,Clear,20,2013-10-08 13:54:00
10:54 AM,62.1,46.0,56,30.23,10.0,North,10.4,19.6,N/A,,Clear,10,2013-10-08 14:54:00
11:54 AM,63.0,46.0,54,30.23,10.0,NNE,16.1,25.3,N/A,,Clear,20,2013-10-08 15:54:00
12:54 PM,64.0,46.9,54,30.24,10.0,NE,13.8,-,N/A,,Clear,40,2013-10-08 16:54:00
1:54 PM,64.0,48.0,56,30.23,10.0,NE,11.5,-,N/A,,Clear,40,2013-10-08 17:54:00
2:54 PM,64.0,48.9,58,30.22,10.0,NE,9.2,-,N/A,,Clear,40,2013-10-08 18:54:00
3:54 PM,64.0,50.0,60,30.22,10.0,NE,10.4,-,N/A,,Clear,40,2013-10-08 19:54:00
4:54 PM,63.0,48.9,60,30.23,10.0,NE,5.8,-,N/A,,Clear,50,2013-10-08 20:54:00
5:54 PM,62.1,50.0,65,30.25,10.0,Calm,Calm,-,N/A,,Clear,0,2013-10-08 21:54:00
6:54 PM,60.1,51.1,72,30.25,10.0,NNW,3.5,-,N/A,,Clear,330,2013-10-08 22:54:00
7:54 PM,59.0,51.1,75,30.25,10.0,North,3.5,-,N/A,,Clear,350,2013-10-08 23:54:00
8:54 PM,57.9,50.0,75,30.26,10.0,North,3.5,-,N/A,,Clear,350,2013-10-09 00:54:00
9:54 PM,60.1,48.0,64,30.26,10.0,NNE,4.6,-,N/A,,Clear,30,2013-10-09 01:54:00
10:54 PM,60.1,46.9,62,30.27,10.0,NNE,5.8,-,N/A,,Clear,30,2013-10-09 02:54:00
11:54 PM,61.0,48.0,62,30.25,10.0,NE,9.2,-,N/A,,Clear,40,2013-10-09 03:54:00